STARLINK-2173 (48560 NORAD) Tracking and Keplerian Element Data

This shows tracking and keplerian element data for the satellite.

Feedback or suggestion? Click here.




ElementValue
Catalog48560
NameSTARLINK-2173
Epoch Orbit1189
Epoch Day211.12222375
Epoch Year2021
RAAN129.5532
Inclination53.0321
Eccentricity0.0002054
Argument of Perigee78.3142
Mean Anonmoly281.8077
Mean Motion15.06399382
Decay Rate1.105E-05
L11 48560U 21041H 21211.12222375 .00001105 00000-0 93087-4 0 9990
L22 48560 53.0321 129.5532 0002054 78.3142 281.8077 15.06399382 11890

Live tracking and technical data element details for STARLINK-2173 (NORAD 48560). STARLINK-2173 can be tracked NOW for your location showing map with azimuth and elevation plus other details from your city location.

Track the satellite on the map from your city or location and see movement details for azimuth, elevation, latitude, longitude, range, height, and movement on the map or in text.







IsCatalogInMostPopularTable: catalog: 48560, numindb: 23
Update: records affected: 1



GetName: 48560 STARLINK-2173

Hit Count: updated at: Sat, 31 Jul 2021 14:43:57 GMT